{"data":{"norad_id":63891,"epoch":"2026-09-19T02:26:59.682624Z","epoch_age_seconds":267753,"freshness":"STALE","line1":"1 63891U 25095B   26262.10207966  .00012722  00000+0  47084-3 0  9996","line2":"2 63891  43.0006 164.2844 0001634 268.1334  91.9330 15.27591838 77369","mean_motion":15.27591838,"eccentricity":0.0001634,"inclination_deg":43.0006,"raan_deg":164.2844,"arg_perigee_deg":268.1334,"mean_anomaly_deg":91.933,"bstar":0.00047084,"rev_number":7736,"period_min":94.266018197984,"perigee_km":481.89253702181,"apogee_km":484.13476105392,"semimajor_km":6861.1506490379,"source":"CELESTRAK","updated_at":"2026-09-21T09:00:35.142767Z"}}